Wind_Speed
10 10 10 11 11 11 12 12 13 13 14 15 15 16 16 17 17 17 18 19 19 20 20 21 22 22 23 23 24 24 24 24 24 24 25 25 26 26
11 11 11 11 11 12 12 13 14 14 15 15 15 16 16 17 17 18 18 18 19 19 19 20 21 21 22 23 23 23 23 23 23 24 25 26 25 26
12 12 13 13 14 14 14 15 15 16 16 17 17 17 18 18 18 18 19 19 19 20 20 20 21 21 21 22 22 22 23 23 23 24 24 25 25 26
14 14 14 15 16 16 16 16 16 17 17 18 18 18 18 19 19 20 20 19 19 20 20 20 20 21 22 22 22 22 23 23 24 25 25 26 26 27
15 15 15 16 17 17 17 18 18 18 19 19 19 20 20 20 21 21 21 21 20 20 20 20 20 21 21 22 23 23 24 25 25 26 27 27 27 27
17 17 18 19 19 19 19 19 20 20 20 20 20 21 21 21 21 22 22 22 22 21 21 21 21 21 22 22 23 23 24 24 25 26 27 28 28 28
20 20 21 22 22 21 21 21 21 21 22 22 22 22 23 22 22 23 23 23 23 23 22 22 22 23 24 24 24 24 25 25 25 26 26 27 28 29
22 23 23 23 23 23 23 23 22 22 23 23 24 24 23 23 23 23 23 23 24 24 24 24 24 24 25 25 25 26 26 26 26 26 27 27 28 29
25 25 25 26 25 25 26 25 24 24 24 24 24 25 25 24 24 24 24 24 24 25 26 26 26 26 27 27 27 27 27 27 27 28 28 28 28 29
26 27 27 28 28 29 28 27 26 25 25 25 25 25 26 26 26 25 25 26 26 26 27 27 28 28 29 28 28 28 28 29 29 30 30 30 30 30
28 28 29 29 29 29 28 27 27 26 26 27 26 26 27 27 26 26 27 27 28 28 28 28 29 29 30 30 29 29 29 30 30 31 31 32 33 33
30 30 30 30 29 28 27 27 27 27 27 28 28 28 28 28 28 28 28 29 29 29 30 30 30 30 30 31 31 31 31 31 31 32 32 33 33 33
31 31 31 30 30 28 28 28 27 28 28 29 29 29 29 29 29 30 30 30 31 31 31 31 32 32 32 32 32 32 32 32 32 33 32 32 33 33
32 32 33 32 30 29 29 29 29 29 30 30 30 30 31 31 31 32 32 32 32 33 33 33 33 34 33 33 33 33 33 33 33 33 33 33 33 33
33 33 33 33 32 31 31 31 31 31 31 30 30 31 32 32 33 33 34 33 33 33 34 34 34 34 34 34 34 34 34 34 34 34 34 34 34 34
35 35 35 34 33 33 33 33 33 33 32 31 31 32 32 32 33 33 33 33 33 34 34 34 34 34 34 34 34 34 34 34 34 34 34 35 35 35
37 37 37 36 34 34 34 34 34 34 34 34 34 34 33 33 34 34 34 34 34 34 34 35 35 35 35 35 35 35 35 34 35 35 35 35 35 35
38 38 37 35 35 35 35 35 35 35 35 34 35 35 35 35 35 35 35 35 34 35 35 35 35 36 35 35 35 35 35 34 34 35 35 34 35 35
38 37 37 36 35 35 36 36 36 36 36 36 36 36 36 36 35 36 35 35 36 35 36 36 36 35 35 35 35 35 35 35 35 35 35 36 35 35
39 37 37 36 35 36 36 37 36 36 36 37 37 37 36 37 37 36 36 36 36 36 35 35 36 36 35 35 36 36 36 36 36 36 36 36 36 35
39 38 38 37 36 36 35 35 35 35 36 36 36 37 37 37 37 37 37 37 36 36 36 36 36 36 36 36 36 36 36 37 37 37 36 36 36 36
37 37 36 35 35 34 34 35 35 36 36 36 37 37 37 37 37 37 37 37 37 37 37 37 37 37 37 36 36 36 36 37 37 37 37 37 37 37
36 35 34 34 34 34 34 34 34 34 35 36 36 36 36 36 36 36 37 38 37 37 37 37 36 37 37 37 37 36 36 36 36 36 37 37 37 36
Wind_Direction
306 305 307 300 299 297 294 293 294 295 295 292 291 293 292 291 291 292 289 287 286 286 284 281 279 277 277 280 279 278 280 279 277 277 277 276 278 277
304 303 303 304 302 303 301 297 294 294 294 293 293 292 291 293 294 293 292 290 288 287 286 284 282 280 279 280 280 280 280 279 279 280 279 278 277 276
300 299 298 299 300 301 302 302 298 294 292 291 292 292 293 293 294 293 293 292 291 289 287 287 285 283 282 282 284 283 281 282 281 281 280 278 276 275
299 298 296 295 297 300 299 300 300 297 295 294 293 292 292 293 293 293 291 292 292 291 290 290 289 286 283 283 284 285 285 284 282 281 280 280 278 276
297 296 295 297 297 298 298 297 298 297 297 294 292 291 292 293 292 292 290 292 292 291 292 291 289 288 287 287 286 286 285 283 282 281 279 279 278 277
293 295 297 297 297 297 296 296 296 296 296 296 295 293 292 292 292 292 291 291 290 291 292 292 291 289 289 289 289 290 289 288 285 283 281 279 277 276
292 292 293 295 296 295 296 295 294 294 294 294 294 294 293 292 291 291 291 291 291 291 291 292 292 291 289 289 290 290 289 288 287 285 283 282 280 278
291 290 291 290 293 294 295 295 294 294 293 293 293 294 293 293 292 291 290 288 289 289 290 290 289 290 290 289 289 289 288 288 289 287 285 283 282 280
287 289 290 288 289 291 293 291 292 292 293 293 294 293 293 294 294 293 291 291 290 288 289 288 288 288 288 289 288 288 287 287 286 285 284 283 282 280
285 287 289 288 287 287 287 288 289 291 290 291 293 293 293 293 293 293 292 291 290 290 290 289 288 288 288 288 289 288 287 286 285 285 284 283 281 280
284 285 286 287 286 287 285 285 287 286 287 288 290 292 293 294 294 293 291 289 289 289 290 290 290 289 289 289 288 288 287 286 285 285 285 283 283 282
282 283 285 286 287 288 287 287 287 285 285 287 289 292 294 295 294 293 292 291 290 289 289 290 291 291 290 289 288 288 287 287 287 287 286 285 283 282
281 281 284 286 286 286 286 287 286 285 285 287 289 291 293 293 292 292 292 290 289 289 289 290 291 291 290 290 289 289 288 288 289 288 286 285 284 283
279 280 282 282 283 284 285 286 285 285 286 287 288 289 290 291 291 291 291 290 289 289 290 290 291 291 290 290 289 289 288 288 288 287 286 285 284 284
278 280 281 280 280 281 282 283 283 284 285 286 288 289 289 290 290 291 291 290 289 289 290 290 291 291 290 290 289 289 289 288 286 286 286 285 285 285
278 278 279 279 279 279 280 281 281 282 284 286 287 287 288 289 290 290 291 291 291 291 291 291 290 289 290 291 290 289 289 288 287 286 286 286 286 286
279 279 278 276 277 277 278 279 279 280 282 284 285 285 286 287 288 288 289 290 290 291 291 291 291 291 291 290 290 290 290 289 288 288 287 287 286 285
279 279 279 276 276 275 276 277 278 279 281 282 282 283 283 284 286 287 288 288 288 288 289 290 290 291 291 290 291 291 290 289 289 289 287 287 286 285
278 278 278 277 275 275 276 277 277 278 278 278 279 281 282 282 284 286 287 287 287 288 288 288 289 289 290 290 290 290 290 289 288 288 289 288 288 287
278 277 276 275 275 275 276 276 276 277 277 278 278 279 281 281 282 283 284 286 286 287 288 289 289 289 289 290 289 289 289 289 289 288 289 288 288 287
275 275 276 275 274 275 275 275 275 276 277 278 278 279 280 281 281 282 284 286 286 287 288 288 289 289 290 289 288 289 289 290 290 289 288 287 287 285
274 273 274 274 274 275 275 275 275 276 277 278 278 279 280 282 283 284 284 285 286 286 286 287 287 288 289 289 289 289 290 291 291 290 288 288 288 286
273 273 272 273 274 273 275 278 277 278 278 279 278 278 280 282 282 283 284 285 285 285 285 285 287 288 289 289 290 290 292 292 291 290 290 289 289 287
Height
5870 5869 5867 5866 5865 5864 5863 5862 5861 5859 5858 5856 5855 5853 5852 5851 5849 5848 5846 5845 5844 5842 5841 5840 5839 5838 5837 5836 5835 5834 5833 5832 5831 5830 5830 5829 5828 5827
5867 5866 5864 5863 5861 5860 5859 5858 5857 5856 5854 5853 5851 5849 5848 5846 5845 5843 5842 5840 5839 5837 5836 5835 5834 5832 5831 5830 5829 5828 5827 5826 5825 5824 5823 5822 5821 5821
5863 5862 5861 5860 5858 5857 5855 5854 5852 5851 5850 5848 5847 5845 5843 5841 5840 5838 5837 5835 5834 5832 5831 5829 5828 5827 5826 5824 5823 5822 5821 5820 5818 5817 5816 5815 5814 5813
5859 5858 5856 5855 5854 5853 5851 5850 5848 5846 5845 5843 5842 5840 5838 5837 5835 5833 5832 5830 5828 5827 5825 5824 5822 5821 5820 5818 5817 5816 5815 5813 5812 5811 5810 5808 5807 5806
5855 5854 5852 5851 5849 5848 5846 5844 5843 5841 5840 5838 5836 5834 5833 5831 5830 5828 5826 5824 5823 5821 5820 5818 5817 5815 5813 5812 5811 5809 5808 5806 5805 5804 5802 5801 5799 5798
5850 5849 5847 5845 5844 5842 5840 5839 5837 5836 5834 5832 5830 5829 5827 5825 5824 5822 5820 5818 5817 5815 5814 5812 5811 5809 5807 5806 5804 5803 5801 5799 5798 5796 5795 5793 5792 5790
5845 5843 5841 5839 5837 5836 5834 5832 5831 5829 5827 5826 5824 5823 5821 5819 5817 5816 5814 5812 5811 5809 5808 5806 5804 5803 5801 5800 5798 5796 5794 5792 5791 5789 5787 5786 5784 5783
5838 5836 5835 5833 5831 5829 5827 5826 5824 5822 5821 5819 5818 5816 5814 5812 5810 5809 5807 5805 5804 5803 5801 5799 5798 5796 5794 5792 5790 5789 5787 5785 5783 5781 5779 5777 5776 5774
5831 5829 5828 5826 5824 5822 5820 5819 5817 5815 5814 5813 5811 5809 5807 5805 5803 5802 5800 5798 5797 5795 5794 5792 5790 5789 5787 5784 5783 5781 5779 5777 5775 5773 5771 5769 5767 5765
5823 5822 5820 5818 5816 5814 5812 5811 5809 5808 5807 5805 5803 5801 5800 5798 5796 5794 5792 5791 5789 5787 5786 5784 5782 5780 5778 5776 5774 5772 5770 5768 5766 5764 5762 5760 5758 5756
5815 5813 5812 5810 5808 5806 5804 5802 5801 5800 5798 5797 5795 5793 5792 5790 5788 5786 5784 5783 5781 5779 5777 5775 5773 5771 5769 5767 5765 5763 5761 5759 5757 5755 5753 5750 5748 5747
5806 5805 5803 5801 5800 5797 5795 5794 5792 5791 5790 5789 5787 5785 5783 5781 5779 5778 5776 5774 5772 5770 5768 5766 5764 5762 5760 5758 5756 5753 5751 5749 5747 5745 5742 5740 5738 5736
5797 5796 5794 5793 5791 5789 5787 5785 5784 5782 5781 5780 5778 5776 5774 5773 5771 5769 5767 5765 5763 5761 5759 5757 5755 5752 5750 5748 5746 5743 5741 5739 5736 5734 5732 5730 5728 5726
5787 5786 5785 5784 5782 5780 5778 5777 5775 5774 5772 5771 5769 5767 5765 5764 5761 5759 5757 5755 5753 5751 5749 5747 5745 5743 5740 5738 5736 5734 5731 5729 5726 5724 5722 5720 5718 5716
5777 5776 5774 5773 5772 5771 5769 5767 5766 5764 5763 5761 5760 5758 5756 5754 5752 5750 5748 5745 5743 5741 5739 5737 5735 5732 5730 5728 5726 5724 5721 5718 5716 5714 5711 5709 5707 5705
5767 5765 5764 5763 5761 5760 5759 5757 5756 5754 5753 5752 5750 5748 5746 5744 5742 5740 5738 5736 5734 5732 5729 5727 5724 5723 5720 5718 5715 5713 5710 5708 5705 5703 5701 5698 5696 5694
5755 5753 5752 5752 5751 5749 5748 5747 5745 5744 5743 5741 5739 5738 5736 5734 5732 5730 5728 5726 5724 5722 5719 5717 5714 5712 5710 5708 5705 5702 5700 5697 5695 5692 5690 5688 5685 5683
5743 5742 5741 5740 5739 5738 5737 5736 5735 5733 5732 5730 5729 5727 5725 5723 5721 5719 5718 5716 5714 5712 5709 5707 5704 5702 5699 5696 5695 5692 5689 5687 5684 5681 5679 5676 5674 5672
5731 5730 5730 5729 5728 5727 5726 5725 5724 5723 5721 5719 5718 5716 5714 5712 5711 5709 5707 5705 5703 5701 5699 5696 5694 5691 5689 5686 5683 5681 5679 5676 5673 5670 5668 5665 5663 5660
5719 5718 5718 5717 5716 5715 5714 5713 5712 5711 5709 5708 5706 5705 5703 5701 5700 5698 5696 5694 5692 5690 5688 5685 5683 5681 5678 5676 5673 5671 5668 5665 5662 5659 5657 5654 5652 5649
5707 5706 5706 5705 5704 5703 5702 5701 5700 5699 5698 5697 5695 5694 5692 5690 5689 5687 5685 5683 5681 5679 5677 5675 5672 5670 5667 5665 5662 5660 5657 5654 5651 5648 5645 5643 5640 5638
5695 5694 5694 5693 5693 5692 5691 5690 5689 5688 5687 5685 5684 5682 5681 5679 5678 5676 5674 5672 5670 5668 5666 5663 5661 5658 5656 5654 5651 5649 5646 5643 5639 5636 5633 5631 5628 5626
5683 5683 5683 5682 5681 5681 5680 5679 5678 5677 5675 5674 5673 5671 5670 5668 5667 5665 5663 5661 5658 5656 5654 5652 5650 5647 5645 5643 5640 5638 5635 5632 5628 5626 5623 5620 5617 5615